Powrót do katalogu

STARLINK-30804

AktywnyŁącznośćVLEO
NORAD 58155·PAYLOAD·🇺🇸 United States

Wystrzelony Oct 29, 2023 z Vandenberg Space Force Base

Loading…

Następne Przeloty (najbliższe 24 godziny)

TLE

ŚwieżeSource: CelesTrak SupGP

Epoka: Sep 14, 2026, 22:36 UTC

1 58155C 23166F   26257.94215278  .00026356  00000+0  84782-3 0  2572
2 58155  53.1584  59.4029 0001231  84.4578 177.8391 15.31678172    12

Śledź STARLINK-30804 w czasie rzeczywistym z AllMySat

Download on the App Store